Weather History for Columbia, SC

Change the Weather History Date:

Saturday, June 15, 2013

  Actual Average Record
Temperature  
Mean Temperature 74 °F 79 °F  
Max Temperature 87 °F 90 °F 102 °F (1899)
Min Temperature 61 °F 68 °F 53 °F (1959)
Degree Days  
Heating Degree Days 0 0  
Month to date heating degree days 0 0  
Since 1 June heating degree days 0 0  
Since 1 July heating degree days 2261 2551  
Cooling Degree Days 9 14  
Month to date cooling degree days 209 191  
Year to date cooling degree days 529 512  
Since 1 June cooling degree days 209 191  
Growing Degree Days 24 (Base 50)    
Moisture  
Dew Point 59 °F    
Average Humidity 65    
Maximum Humidity 93    
Minimum Humidity 37    
Precipitation  
Precipitation 0.00 in 0.17 in 5.40 in (1973)
Month to date precipitation 3.76 2.24  
Year to date precipitation 22.38 18.75  
Sea Level Pressure  
Sea Level Pressure 30.08 in    
Wind  
Wind Speed 3 mph (SSE)    
Max Wind Speed 13 mph    
Max Gust Speed 22 mph    
Visibility 10 miles    
Events      
T = Trace of Precipitation, MM = Missing Value Source: NWS Daily Summary

Daily Weather History Graph

Daily Weather History Graph

Search for Another Location

Airport:

Trip Planner

Search our weather history database for the weather conditions in past years. The results will help you decide how hot, cold, wet, or windy it might be!

Date:

Astronomy

Jun. 15, 2013 Rise Set
Actual Time 6:12 AM EDT 8:37 PM EDT
Civil Twilight 5:43 AM EDT 9:06 PM EDT
Nautical Twilight 5:07 AM EDT 9:42 PM EDT
Astronomical Twilight 4:28 AM EDT 10:21 PM EDT
Moon 12:30 PM EDT (6/15) 12:26 AM EDT (6/15)
Length of Visible Light 15h 22m
Length of Day
14h 24m
Waxing Crescent, 39% of the Moon is Illuminated
Jun 15
Waxing Crescent
Jun 16
First Quarter
Jun 23
Full
Jun 30
Last Quarter
Jul 8
New

Hourly Weather History & Observations

Time (EDT) Temp. Heat Index Dew Point Humidity Pressure Visibility Wind Dir Wind Speed Gust Speed Precip Events Conditions
12:56 AM 66.0 °F - 61.0 °F 84% 30.03 in 10.0 mi West 3.5 mph - N/A   Clear
1:56 AM 64.9 °F - 61.0 °F 87% 30.04 in 10.0 mi Calm Calm - N/A   Clear
2:56 AM 64.0 °F - 60.1 °F 87% 30.04 in 10.0 mi Calm Calm - N/A   Clear
3:56 AM 64.0 °F - 60.1 °F 87% 30.04 in 10.0 mi Calm Calm - N/A   Clear
4:56 AM 63.0 °F - 60.1 °F 90% 30.03 in 7.0 mi Calm Calm - N/A   Clear
5:56 AM 61.0 °F - 57.9 °F 90% 30.06 in 10.0 mi WSW 3.5 mph - N/A   Clear
6:56 AM 63.0 °F - 59.0 °F 87% 30.08 in 10.0 mi Calm Calm - N/A   Scattered Clouds
7:56 AM 69.1 °F - 61.0 °F 75% 30.10 in 10.0 mi Calm Calm - N/A   Partly Cloudy
8:56 AM 72.0 °F - 62.1 °F 71% 30.12 in 10.0 mi ESE 3.5 mph - N/A   Partly Cloudy
9:56 AM 77.0 °F - 64.0 °F 64% 30.12 in 10.0 mi SE 5.8 mph - N/A   Clear
10:56 AM 81.0 °F 81.6 °F 60.1 °F 49% 30.13 in 10.0 mi Calm Calm - N/A   Partly Cloudy
11:56 AM 82.9 °F 82.0 °F 55.0 °F 38% 30.12 in 10.0 mi Calm Calm - N/A   Scattered Clouds
12:56 PM 84.0 °F 83.0 °F 55.9 °F 38% 30.11 in 10.0 mi Variable 3.5 mph - N/A   Scattered Clouds
1:56 PM 84.9 °F 83.7 °F 55.9 °F 37% 30.09 in 10.0 mi SE 6.9 mph - N/A   Scattered Clouds
2:56 PM 84.9 °F 83.9 °F 57.0 °F 38% 30.09 in 10.0 mi East 3.5 mph - N/A   Mostly Cloudy
3:56 PM 86.0 °F 84.9 °F 57.0 °F 37% 30.08 in 10.0 mi SE 5.8 mph - N/A   Mostly Cloudy
4:56 PM 84.9 °F 83.7 °F 55.9 °F 37% 30.07 in 10.0 mi SE 6.9 mph - N/A   Mostly Cloudy
5:56 PM 86.0 °F 84.9 °F 57.0 °F 37% 30.06 in 10.0 mi South 6.9 mph - N/A   Scattered Clouds
6:56 PM 84.9 °F 83.9 °F 57.0 °F 38% 30.07 in 10.0 mi SSE 5.8 mph - N/A   Scattered Clouds
7:56 PM 82.9 °F 82.8 °F 59.0 °F 44% 30.06 in 10.0 mi SSE 5.8 mph - N/A   Mostly Cloudy
8:56 PM 80.1 °F 80.9 °F 60.1 °F 50% 30.06 in 10.0 mi Calm Calm - N/A   Scattered Clouds
9:56 PM 75.0 °F - 63.0 °F 66% 30.08 in 10.0 mi South 3.5 mph - N/A   Clear
10:56 PM 73.9 °F - 64.0 °F 71% 30.10 in 10.0 mi Calm Calm - N/A   Clear
11:56 PM 73.0 °F - 62.1 °F 68% 30.12 in 10.0 mi South 4.6 mph - N/A   Clear